Location: Boca do Mato
(22.9085°S, 43.2930°W)
Time: 19:50:09
(UTC+00:00)

N. Korean satellite - Visible Passes

Search period start: 28 September 2020 00:00
Search period end: 08 October 2020 00:00
Orbit: 455 x 503 km, 97.2° (Epoch: 28 September)

Date Brightness Start Highest point End Pass type
(mag) Time Alt. Az. Time Alt. Az. Time Alt. Az.
28 Sep 8.3 07:28:52 10° NE 07:32:02 35° ESE 07:35:14 10° S visible
29 Sep 9.9 07:04:12 10° ENE 07:06:09 14° ESE 07:08:05 10° SE visible
30 Sep 6.8 08:09:55 10° N 08:13:11 42° W 08:16:30 10° SSW visible
01 Oct 6.9 07:43:46 10° NNE 07:47:11 65° ESE 07:50:37 10° S visible
02 Oct 9.1 07:18:25 10° NE 07:21:14 24° ESE 07:24:04 10° SSE visible
04 Oct 6.4 07:58:54 10° N 08:02:18 66° W 08:05:44 10° SSW visible
05 Oct 7.9 07:33:02 10° NNE 07:36:18 41° ESE 07:39:35 10° S visible
06 Oct 9.7 07:08:06 10° ENE 07:10:22 17° ESE 07:12:38 10° SSE visible
